User: anonymous   Login
Location: Unspecified
(0.0000°N, 0.0000°E)
Time: 07:30:15
(UTC+00:00)
Language:

Picosat 5 - Orbit

View from above orbital plane
View from above orbital plane
View from above satellite
View from above satellite

Ground track
Ground track

The orbit data is extracted from the following two-line orbital elements,

1 26093U 00004L   17148.75468645 +.00000405 +00000-0 +11744-3 0  9999
2 26093 100.1797 251.3065 0031513 102.6790 257.7925 14.51078628911984
Epoch (UTC): 28 May 2017 18:06:44
Eccentricity: 0.0031513
inclination: 100.1797°
perigee height: 700 km
apogee height: 744 km
right ascension of ascending node: 251.3065°
argument of perigee: 102.6790°
revolutions per day: 14.51078628
mean anomaly at epoch: 257.7925°
orbit number at epoch: 91198

The dashed part of the orbit path shows where the satellite is in the earth's shadow,  

DLR